Time,TemperatureF,DewpointF,PressureIn,WindDirection,WindDirectionDegrees,WindSpeedMPH,WindSpeedGustMPH,Humidity,HourlyPrecipIn,Conditions,Clouds,dailyrainin,SoftwareType,DateUTC
2013-01-16 00:02:00,47.0,34.0,30.38,ENE,61,3.0,-999.0,61,-99.99,,,-99.99,,2013-01-16 08:02:00,
2013-01-16 00:12:00,47.0,34.0,30.38,ENE,61,3.0,-999.0,61,-99.99,,,-99.99,,2013-01-16 08:12:00,
2013-01-16 00:22:00,48.0,33.0,30.38,ENE,61,0.0,-999.0,56,-99.99,,,-99.99,,2013-01-16 08:22:00,
2013-01-16 00:32:00,49.0,33.0,30.38,ENE,61,0.0,-999.0,53,-99.99,,,-99.99,,2013-01-16 08:32:00,
2013-01-16 00:52:00,48.0,31.0,30.39,ENE,61,0.0,-999.0,52,-99.99,,,-99.99,,2013-01-16 08:52:00,
2013-01-16 01:02:00,48.0,31.0,30.38,ENE,61,0.0,-999.0,51,-99.99,,,-99.99,,2013-01-16 09:02:00,
2013-01-16 01:22:00,48.0,32.0,30.39,ENE,61,0.0,-999.0,53,-99.99,,,-99.99,,2013-01-16 09:22:00,
2013-01-16 01:32:00,47.0,32.0,30.39,ENE,61,0.0,-999.0,55,-99.99,,,-99.99,,2013-01-16 09:32:00,
2013-01-16 01:42:00,47.0,32.0,30.39,ENE,61,0.0,-999.0,55,-99.99,,,-99.99,,2013-01-16 09:42:00,
2013-01-16 01:52:00,47.0,32.0,30.39,ENE,61,0.0,-999.0,55,-99.99,,,-99.99,,2013-01-16 09:52:00,
2013-01-16 02:02:00,47.0,31.0,30.39,ENE,61,1.0,-999.0,54,-99.99,,,-99.99,,2013-01-16 10:02:00,
2013-01-16 02:12:00,47.0,31.0,30.39,ENE,61,1.0,-999.0,54,-99.99,,,-99.99,,2013-01-16 10:12:00,
2013-01-16 02:22:00,47.0,31.0,30.39,ENE,60,2.0,-999.0,54,-99.99,,,-99.99,,2013-01-16 10:22:00,
2013-01-16 02:32:00,47.0,31.0,30.39,ENE,60,0.0,-999.0,53,-99.99,,,-99.99,,2013-01-16 10:32:00,
2013-01-16 02:42:00,47.0,31.0,30.39,ENE,60,0.0,-999.0,53,-99.99,,,-99.99,,2013-01-16 10:42:00,
2013-01-16 02:52:00,47.0,31.0,30.38,ENE,60,0.0,-999.0,53,-99.99,,,-99.99,,2013-01-16 10:52:00,
2013-01-16 03:02:00,47.0,30.0,30.38,ENE,60,1.0,-999.0,52,-99.99,,,-99.99,,2013-01-16 11:02:00,
2013-01-16 03:32:00,48.0,31.0,30.38,ENE,60,0.0,-999.0,51,-99.99,,,-99.99,,2013-01-16 11:32:00,
2013-01-16 03:43:00,48.0,31.0,30.38,ENE,60,0.0,-999.0,51,-99.99,,,-99.99,,2013-01-16 11:43:00,
2013-01-16 03:53:00,47.0,30.0,30.38,ENE,60,0.0,-999.0,52,-99.99,,,-99.99,,2013-01-16 11:53:00,
2013-01-16 04:02:00,47.0,30.0,30.37,ENE,60,1.0,-999.0,52,-99.99,,,-99.99,,2013-01-16 12:02:00,
2013-01-16 04:22:00,47.0,30.0,30.38,ENE,59,1.0,-999.0,52,-99.99,,,-99.99,,2013-01-16 12:22:00,
2013-01-16 04:33:00,47.0,30.0,30.38,ENE,59,0.0,-999.0,51,-99.99,,,-99.99,,2013-01-16 12:33:00,
2013-01-16 04:42:00,47.0,30.0,30.38,ENE,59,0.0,-999.0,51,-99.99,,,-99.99,,2013-01-16 12:42:00,
2013-01-16 04:52:00,47.0,31.0,30.37,ENE,59,1.0,-999.0,54,-99.99,,,-99.99,,2013-01-16 12:52:00,
2013-01-16 05:02:00,48.0,31.0,30.37,ENE,59,0.0,-999.0,52,-99.99,,,-99.99,,2013-01-16 13:02:00,
2013-01-16 05:22:00,48.0,31.0,30.36,ENE,59,0.0,-999.0,52,-99.99,,,-99.99,,2013-01-16 13:22:00,
2013-01-16 05:32:00,47.0,30.0,30.36,ENE,59,0.0,-999.0,52,-99.99,,,-99.99,,2013-01-16 13:32:00,
2013-01-16 05:42:00,47.0,30.0,30.36,ENE,59,0.0,-999.0,52,-99.99,,,-99.99,,2013-01-16 13:42:00,
2013-01-16 05:52:00,47.0,30.0,30.36,ENE,59,0.0,-999.0,52,-99.99,,,-99.99,,2013-01-16 13:52:00,
2013-01-16 06:02:00,47.0,30.0,30.35,ENE,59,0.0,-999.0,52,-99.99,,,-99.99,,2013-01-16 14:02:00,
2013-01-16 06:12:00,47.0,30.0,30.35,ENE,59,0.0,-999.0,52,-99.99,,,-99.99,,2013-01-16 14:12:00,
2013-01-16 06:22:00,47.0,30.0,30.36,ENE,59,0.0,-999.0,51,-99.99,,,-99.99,,2013-01-16 14:22:00,
2013-01-16 06:32:00,47.0,31.0,30.36,ENE,59,0.0,-999.0,53,-99.99,,,-99.99,,2013-01-16 14:32:00,
2013-01-16 06:42:00,47.0,31.0,30.36,ENE,59,0.0,-999.0,53,-99.99,,,-99.99,,2013-01-16 14:42:00,
2013-01-16 06:52:00,48.0,31.0,30.36,ENE,58,1.0,-999.0,52,-99.99,,,-99.99,,2013-01-16 14:52:00,
2013-01-16 07:02:00,48.0,30.0,30.36,ENE,58,0.0,-999.0,50,-99.99,,,-99.99,,2013-01-16 15:02:00,
2013-01-16 07:22:00,48.0,30.0,30.36,ENE,58,0.0,-999.0,50,-99.99,,,-99.99,,2013-01-16 15:22:00,
2013-01-16 07:32:00,48.0,31.0,30.36,ENE,58,0.0,-999.0,52,-99.99,,,-99.99,,2013-01-16 15:32:00,
2013-01-16 07:43:00,48.0,31.0,30.36,ENE,58,0.0,-999.0,52,-99.99,,,-99.99,,2013-01-16 15:43:00,
2013-01-16 07:52:00,47.0,30.0,30.36,ENE,57,0.0,-999.0,51,-99.99,,,-99.99,,2013-01-16 15:52:00,
2013-01-16 08:03:00,47.0,30.0,30.36,ENE,57,0.0,-999.0,51,-99.99,,,-99.99,,2013-01-16 16:03:00,
2013-01-16 08:12:00,47.0,30.0,30.36,ENE,57,0.0,-999.0,51,-99.99,,,-99.99,,2013-01-16 16:12:00,
2013-01-16 08:22:00,47.0,30.0,30.36,ENE,57,1.0,-999.0,51,-99.99,,,-99.99,,2013-01-16 16:22:00,
2013-01-16 08:32:00,49.0,31.0,30.36,NE,56,1.0,-999.0,49,-99.99,,,-99.99,,2013-01-16 16:32:00,
2013-01-16 08:42:00,49.0,31.0,30.36,NE,56,1.0,-999.0,49,-99.99,,,-99.99,,2013-01-16 16:42:00,
2013-01-16 08:52:00,50.0,32.0,30.36,NE,56,0.0,-999.0,50,-99.99,,,-99.99,,2013-01-16 16:52:00,
2013-01-16 09:02:00,50.0,32.0,30.36,ENE,57,0.0,-999.0,49,-99.99,,,-99.99,,2013-01-16 17:02:00,
2013-01-16 09:22:00,51.0,34.0,30.37,ENE,57,0.0,-999.0,52,-99.99,,,-99.99,,2013-01-16 17:22:00,
2013-01-16 09:33:00,50.0,34.0,30.37,ENE,57,0.0,-999.0,54,-99.99,,,-99.99,,2013-01-16 17:33:00,
2013-01-16 09:43:00,50.0,34.0,30.37,ENE,57,0.0,-999.0,54,-99.99,,,-99.99,,2013-01-16 17:43:00,
2013-01-16 09:52:00,50.0,35.0,30.37,ENE,58,0.0,-999.0,56,-99.99,,,-99.99,,2013-01-16 17:52:00,
2013-01-16 10:02:00,50.0,36.0,30.37,ENE,65,0.0,-999.0,58,-99.99,,,-99.99,,2013-01-16 18:02:00,
2013-01-16 10:12:00,50.0,36.0,30.37,ENE,65,0.0,-999.0,58,-99.99,,,-99.99,,2013-01-16 18:12:00,
2013-01-16 10:22:00,51.0,37.0,30.37,ENE,72,0.0,-999.0,59,-99.99,,,-99.99,,2013-01-16 18:22:00,
2013-01-16 10:33:00,51.0,38.0,30.36,ENE,77,1.0,-999.0,60,-99.99,,,-99.99,,2013-01-16 18:33:00,
2013-01-16 10:42:00,51.0,38.0,30.36,ENE,77,1.0,-999.0,60,-99.99,,,-99.99,,2013-01-16 18:42:00,
2013-01-16 10:52:00,51.0,38.0,30.36,East,87,1.0,-999.0,61,-99.99,,,-99.99,,2013-01-16 18:52:00,
2013-01-16 11:02:00,52.0,39.0,30.35,SE,124,1.0,-999.0,60,-99.99,,,-99.99,,2013-01-16 19:02:00,
2013-01-16 11:12:00,52.0,39.0,30.35,SE,124,1.0,-999.0,60,-99.99,,,-99.99,,2013-01-16 19:12:00,
2013-01-16 11:22:00,52.0,39.0,30.35,SE,132,1.0,-999.0,61,-99.99,,,-99.99,,2013-01-16 19:22:00,
2013-01-16 11:32:00,53.0,40.0,30.34,SE,144,1.0,-999.0,62,-99.99,,,-99.99,,2013-01-16 19:32:00,
2013-01-16 11:42:00,53.0,40.0,30.34,SE,144,1.0,-999.0,62,-99.99,,,-99.99,,2013-01-16 19:42:00,
2013-01-16 11:52:00,54.0,41.0,30.33,SSE,151,2.0,-999.0,61,-99.99,,,-99.99,,2013-01-16 19:52:00,
2013-01-16 12:02:00,53.0,39.0,30.32,South,171,3.0,-999.0,59,-99.99,,,-99.99,,2013-01-16 20:02:00,
2013-01-16 12:12:00,53.0,39.0,30.32,South,171,3.0,-999.0,59,-99.99,,,-99.99,,2013-01-16 20:12:00,
2013-01-16 12:22:00,54.0,39.0,30.32,South,178,1.0,-999.0,56,-99.99,,,-99.99,,2013-01-16 20:22:00,
2013-01-16 12:33:00,53.0,39.0,30.31,South,184,2.0,-999.0,60,-99.99,,,-99.99,,2013-01-16 20:33:00,
2013-01-16 12:42:00,53.0,39.0,30.31,South,184,2.0,-999.0,60,-99.99,,,-99.99,,2013-01-16 20:42:00,
2013-01-16 12:52:00,54.0,39.0,30.30,South,188,2.0,-999.0,56,-99.99,,,-99.99,,2013-01-16 20:52:00,
2013-01-16 13:02:00,53.0,38.0,30.30,SW,214,3.0,-999.0,56,-99.99,,,-99.99,,2013-01-16 21:02:00,
2013-01-16 13:12:00,53.0,38.0,30.30,SW,214,3.0,-999.0,56,-99.99,,,-99.99,,2013-01-16 21:12:00,
2013-01-16 13:22:00,53.0,39.0,30.29,SW,219,3.0,-999.0,59,-99.99,,,-99.99,,2013-01-16 21:22:00,
2013-01-16 13:32:00,53.0,39.0,30.28,SW,226,3.0,-999.0,60,-99.99,,,-99.99,,2013-01-16 21:32:00,
2013-01-16 13:42:00,53.0,39.0,30.28,SW,226,3.0,-999.0,60,-99.99,,,-99.99,,2013-01-16 21:42:00,
2013-01-16 13:52:00,54.0,42.0,30.28,SW,227,3.0,-999.0,63,-99.99,,,-99.99,,2013-01-16 21:52:00,
2013-01-16 14:02:00,54.0,41.0,30.27,SW,229,2.0,-999.0,61,-99.99,,,-99.99,,2013-01-16 22:02:00,
2013-01-16 14:12:00,54.0,41.0,30.27,SW,229,2.0,-999.0,61,-99.99,,,-99.99,,2013-01-16 22:12:00,
2013-01-16 14:22:00,55.0,41.0,30.26,SW,225,2.0,-999.0,59,-99.99,,,-99.99,,2013-01-16 22:22:00,
2013-01-16 14:33:00,55.0,41.0,30.26,SW,225,2.0,-999.0,59,-99.99,,,-99.99,,2013-01-16 22:33:00,
2013-01-16 14:43:00,55.0,41.0,30.26,SW,225,2.0,-999.0,59,-99.99,,,-99.99,,2013-01-16 22:43:00,
2013-01-16 14:52:00,57.0,38.0,30.26,SW,223,2.0,-999.0,49,-99.99,,,-99.99,,2013-01-16 22:52:00,
2013-01-16 15:02:00,57.0,38.0,30.26,SW,223,2.0,-999.0,48,-99.99,,,-99.99,,2013-01-16 23:02:00,
2013-01-16 15:12:00,58.0,38.0,30.26,SW,223,3.0,-999.0,48,-99.99,,,-99.99,,2013-01-16 23:12:00,
2013-01-16 15:22:00,58.0,38.0,30.26,SW,223,3.0,-999.0,48,-99.99,,,-99.99,,2013-01-16 23:22:00,
2013-01-16 15:32:00,58.0,38.0,30.26,SW,222,2.0,-999.0,47,-99.99,,,-99.99,,2013-01-16 23:32:00,
2013-01-16 15:42:00,58.0,38.0,30.26,SW,222,2.0,-999.0,47,-99.99,,,-99.99,,2013-01-16 23:42:00,
2013-01-16 15:52:00,58.0,34.0,30.26,SW,222,2.0,-999.0,41,-99.99,,,-99.99,,2013-01-16 23:52:00,
2013-01-16 16:02:00,59.0,38.0,30.26,SW,222,1.0,-999.0,45,-99.99,,,-99.99,,2013-01-17 00:02:00,
2013-01-16 16:12:00,59.0,38.0,30.26,SW,222,1.0,-999.0,45,-99.99,,,-99.99,,2013-01-17 00:12:00,
2013-01-16 16:22:00,60.0,36.0,30.25,SW,222,0.0,-999.0,40,-99.99,,,-99.99,,2013-01-17 00:22:00,
2013-01-16 16:32:00,61.0,36.0,30.25,SW,222,0.0,-999.0,40,-99.99,,,-99.99,,2013-01-17 00:32:00,
2013-01-16 16:42:00,61.0,36.0,30.25,SW,222,0.0,-999.0,40,-99.99,,,-99.99,,2013-01-17 00:42:00,
2013-01-16 16:52:00,61.0,36.0,30.25,SW,222,0.0,-999.0,40,-99.99,,,-99.99,,2013-01-17 00:52:00,
2013-01-16 17:02:00,61.0,38.0,30.25,SW,222,0.0,-999.0,42,-99.99,,,-99.99,,2013-01-17 01:02:00,
2013-01-16 17:12:00,61.0,38.0,30.25,SW,222,0.0,-999.0,42,-99.99,,,-99.99,,2013-01-17 01:12:00,
2013-01-16 17:22:00,61.0,40.0,30.25,SW,222,0.0,-999.0,45,-99.99,,,-99.99,,2013-01-17 01:22:00,
2013-01-16 17:32:00,60.0,39.0,30.25,SW,222,0.0,-999.0,46,-99.99,,,-99.99,,2013-01-17 01:32:00,
2013-01-16 17:52:00,58.0,34.0,30.25,SW,222,0.0,-999.0,41,-99.99,,,-99.99,,2013-01-17 01:52:00,
2013-01-16 18:02:00,57.0,29.0,30.25,SW,223,0.0,-999.0,34,-99.99,,,-99.99,,2013-01-17 02:02:00,
2013-01-16 18:12:00,57.0,29.0,30.25,SW,223,0.0,-999.0,34,-99.99,,,-99.99,,2013-01-17 02:12:00,
2013-01-16 18:22:00,57.0,27.0,30.24,SW,223,0.0,-999.0,31,-99.99,,,-99.99,,2013-01-17 02:22:00,
2013-01-16 18:32:00,57.0,27.0,30.24,SW,235,1.0,-999.0,32,-99.99,,,-99.99,,2013-01-17 02:32:00,
2013-01-16 18:42:00,57.0,27.0,30.24,SW,235,1.0,-999.0,32,-99.99,,,-99.99,,2013-01-17 02:42:00,
2013-01-16 18:52:00,57.0,27.0,30.24,SW,235,1.0,-999.0,32,-99.99,,,-99.99,,2013-01-17 02:52:00,
2013-01-16 19:02:00,57.0,26.0,30.24,SW,235,0.0,-999.0,30,-99.99,,,-99.99,,2013-01-17 03:02:00,
2013-01-16 19:22:00,57.0,26.0,30.24,SW,235,0.0,-999.0,30,-99.99,,,-99.99,,2013-01-17 03:22:00,
2013-01-16 19:32:00,57.0,27.0,30.23,SW,235,0.0,-999.0,31,-99.99,,,-99.99,,2013-01-17 03:32:00,
2013-01-16 19:52:00,57.0,25.0,30.23,SW,235,0.0,-999.0,29,-99.99,,,-99.99,,2013-01-17 03:52:00,
2013-01-16 20:02:00,57.0,26.0,30.23,SW,235,0.0,-999.0,30,-99.99,,,-99.99,,2013-01-17 04:02:00,
2013-01-16 20:12:00,57.0,27.0,30.23,SW,236,0.0,-999.0,31,-99.99,,,-99.99,,2013-01-17 04:12:00,
2013-01-16 20:22:00,57.0,27.0,30.23,SW,236,0.0,-999.0,31,-99.99,,,-99.99,,2013-01-17 04:22:00,
2013-01-16 20:32:00,57.0,25.0,30.22,SW,236,0.0,-999.0,29,-99.99,,,-99.99,,2013-01-17 04:32:00,
2013-01-16 21:03:00,57.0,24.0,30.22,SW,236,0.0,-999.0,28,-99.99,,,-99.99,,2013-01-17 05:03:00,
2013-01-16 21:22:00,57.0,24.0,30.22,SW,236,0.0,-999.0,28,-99.99,,,-99.99,,2013-01-17 05:22:00,
2013-01-16 21:32:00,57.0,23.0,30.22,SW,236,0.0,-999.0,27,-99.99,,,-99.99,,2013-01-17 05:32:00,
2013-01-16 21:52:00,57.0,26.0,30.22,SW,236,0.0,-999.0,30,-99.99,,,-99.99,,2013-01-17 05:52:00,
2013-01-16 22:02:00,57.0,27.0,30.22,SW,236,0.0,-999.0,31,-99.99,,,-99.99,,2013-01-17 06:02:00,
2013-01-16 22:11:00,57.0,27.0,30.22,SW,236,0.0,-999.0,31,-99.99,,,-99.99,,2013-01-17 06:11:00,
2013-01-16 22:22:00,57.0,27.0,30.22,SW,236,0.0,-999.0,31,-99.99,,,-99.99,,2013-01-17 06:22:00,
2013-01-16 22:32:00,57.0,27.0,30.21,SW,236,1.0,-999.0,31,-99.99,,,-99.99,,2013-01-17 06:32:00,
2013-01-16 22:42:00,57.0,27.0,30.21,SW,236,1.0,-999.0,31,-99.99,,,-99.99,,2013-01-17 06:42:00,
2013-01-16 22:52:00,57.0,26.0,30.21,SW,236,0.0,-999.0,30,-99.99,,,-99.99,,2013-01-17 06:52:00,
2013-01-16 23:02:00,57.0,26.0,30.21,SW,236,0.0,-999.0,30,-99.99,,,-99.99,,2013-01-17 07:02:00,
2013-01-16 23:22:00,57.0,26.0,30.21,SW,236,1.0,-999.0,30,-99.99,,,-99.99,,2013-01-17 07:22:00,
2013-01-16 23:32:00,57.0,26.0,30.20,SW,236,0.0,-999.0,30,-99.99,,,-99.99,,2013-01-17 07:32:00,
2013-01-16 23:42:00,57.0,26.0,30.20,SW,236,0.0,-999.0,30,-99.99,,,-99.99,,2013-01-17 07:42:00,
2013-01-16 23:52:00,57.0,27.0,30.20,SW,236,0.0,-999.0,31,-99.99,,,-99.99,,2013-01-17 07:52:00,